Погода в Шаранге

Россия / Нижегородская область     57°10′37″N   46°32′39″E
темп.,
°C
ветер,
м/с
пор.,
м/с
влажн.,
%
обл.,
%
осадки,
мм/ч
давл.,
гПа
погр.,
м
29 июля, чт
чт2900:00+13ююз34615 0.0 101260
03:00+12ююз247122 0.0 101166
06:00+16юз2569100 0.0 1009124
09:00+22юз3453100 0.0 1008436
12:00+19юз3573100 0.0 1008217
15:00+20ю3569100 0.0 1007370
18:00+19ююз2776100 0.0 1005413
21:00+17ююз379585 0.0 1004249
30 июля, пт
пт3000:00+15юз2798100 0.0 1003168
03:00+15зюз3799100 0.0 1003196
06:00+17зюз389114 0.0 1003272
09:00+24з46586 0.0 1003872
12:00+27з5741100 0.0 10032310
15:00+26з4646100 0.0 1003777
18:00+24ююз1261100 0.0 100324
21:00+18з3696100 1.6 1003167
31 июля, сб
сб3100:00+17зюз129677 1.9 100434
03:00+17ююз229686 1.9 100362
06:00+17ю2597100 0.1 1002179
09:00+21юз578451 0.3 1002713
12:00+26зюз694619 0.9 10012061
15:00+25зюз6104436 0.9 10022451
18:00+24зюз510420 0.0 10031105
21:00+18зюз386368 0.0 1004156
1 августа, вс
вс100:00+19зюз3105981 0.0 1005439
03:00+15зюз39770 0.0 1007194
06:00+17зюз387515 0.0 1008245
09:00+23зюз585699 0.0 10081243
12:00+25з5849100 0.0 10082060
15:00+26з5845100 0.0 10092077
18:00+22зсз2559100 0.0 1009150
21:00+20ю3661100 0.0 1009140
2 августа, пн
пн200:00+18ююз2286100 0.7 100931
03:00+17ююз1191100 1.2 100815
06:00+18з1192100 1.1 100977
09:00+19з2491100 2.6 1009282
12:00+22ю358299 0.4 1008381
15:00+29ююз484790 0.4 10072070
18:00+26ю236244 0.0 1006106
21:00+20всв118670 0.0 100716